Content
SEND FEEDBACK

Daily
Averages
Monthly
Summary
United States of America

CACTUS SPRINGS, NEVADA


Home > North America > United States > Nevada
Elevation: 312 feet     Latitude: 36 35N     Longitude: 115 41W

WEATHER
 
SELECT A DAY
Number of Records: 72,084;   Date Range: 4/19/05 - 12/19/14
 
SHARE

PRINT THIS DATA

[ ← Previous Day ]
WEATHER ALMANAC - JANUARY 3, 2013
[ Next Day → ]
[ °C ]   °F
Weather ElementAverageHighLow
Temperature35 °F47.7 °F (2:58 pm)23.5 °F (10:58 pm)
Dewpoint5 °F11.5 °F (1:58 am)0.5 °F (5:58 pm)
Humidity31.2 %50 % (2:58 am)15 % (2:58 pm)
Barometer30.27 in30.34 in (9:58 am)30.22 in (1:58 am)
Wind Speed5.2 mph15 mph (4:58 am)
Weather ElementAverage
Visibility10 mi
Wind DirectionSSE (158.7 °)

Weather ElementTotal
Precipitation---
Heating Degree Days29.4 (Base 65)
Averaged from 23 records on January 3, 2013
WEATHER CONDITIONS BREAKOUT
WIND DIRECTION BREAKOUT
WEATHER BY HOUR - JANUARY 3, 2013
[ °C ]   °F
Local TimeTemperatureDewpointHumidityBarometerVisibilityWind DirectionWind SpeedGust SpeedPrecipitationEventsConditions
1:58 AM28.8 °F11.5 °F49 %30.22 in10.0 miNW (320°)5.8 mphClear
2:58 AM27.3 °F10.9 °F50 %30.23 in10.0 miESE (120°)1.2 mphClear
3:58 AM26.8 °F10.0 °F49 %30.23 in10.0 miSSW (200°)2.3 mphClear
4:58 AM31.1 °F6.8 °F36 %30.24 in10.0 miSE (130°)15.0 mphClear
5:58 AM30.6 °F6.8 °F37 %30.27 in10.0 miSE (130°)12.7 mphClear
6:58 AM27.5 °F8.6 °F45 %30.29 in10.0 miEast (90°)8.1 mphClear
7:58 AM27.7 °F8.2 °F44 %30.31 in10.0 miEast (80°)8.1 mphClear
8:58 AM36.7 °F5.7 °F28 %30.33 in10.0 miWSW (250°)2.3 mphClear
9:58 AM39.6 °F4.1 °F23 %30.34 in10.0 miNE (50°)3.5 mphClear
10:58 AM42.3 °F3.9 °F20 %30.32 in10.0 miENE (70°)4.6 mphClear
11:58 AM44.1 °F4.1 °F19 %30.28 in10.0 miVariable1.2 mphClear
12:58 PM45.0 °F2.7 °F17 %30.26 in10.0 miESE (120°)2.3 mphClear
1:58 PM46.6 °F2.7 °F16 %30.25 in10.0 miSE (130°)2.3 mphClear
2:58 PM47.7 °F1.2 °F15 %30.26 in10.0 miSouth (180°)2.3 mphClear
3:58 PM47.5 °F1.4 °F15 %30.26 in10.0 miSSE (150°)5.8 mphClear
4:58 PM42.4 °F1.0 °F18 %30.26 in10.0 miSE (140°)9.2 mphClear
5:58 PM40.6 °F0.5 °F19 %30.26 in10.0 miSE (130°)4.6 mphClear
6:58 PM36.9 °F1.6 °F23 %30.27 in10.0 miWest (260°)8.1 mphClear
7:58 PM33.8 °F2.3 °F26 %30.27 in10.0 miNorth (360°)1.2 mphClear
8:58 PM28.6 °F5.7 °F38 %30.28 in10.0 miWSW (240°)5.8 mphClear
9:58 PM27.1 °F4.3 °F38 %30.29 in10.0 miCalmClear
10:58 PM23.5 °F6.1 °F47 %30.29 in10.0 miWSW (250°)6.9 mphClear
11:58 PM23.5 °F5.2 °F46 %30.29 in10.0 miWSW (250°)5.8 mphClear
Hourly data recorded from KINS, located miles away from Cactus Springs, Nevada







STORIES FROM OUR PARTNERS